Mt. Lincoln Summit Weather observations

Data are for 10 minute period ending at time listed.
 Day   Time   Solar   Ave.   Ave.  Ave.  Vector    Max.   Stn.  
  of    of     Rad.   Air    Rel.  Wind   Wind     Wind   Baro.  
Year   Day            Temp.  Hum.  Speed  Dir.     Gust   Pres. 
2015   (PST)   W/m2    F      %     mph   deg.      mph    mb    
-----------------------------------------------------------------
 181   18:30  999.0    70   59.2     2    270.8     3.6   604.40
 181   18:40  999.0    70   59.2     1    294.4     4.0   601.30
 181   18:50  999.0    69   59.2     1    299.6     2.8   602.60
 181   19:00  999.0    69   59.2     1    275.9     3.0   601.80
 181   19:10  999.0    69   59.1     1    290.3     3.2   600.50
 181   19:20  999.0    68   58.8     1    304.4     3.1   600.60
 181   19:30  999.0    68   58.3     0    270.1     2.3   596.40
 181   19:40  999.0    68   58.2     0    271.2     2.2   597.40
 181   19:50  999.0    67   58.2     1    268.7     2.2   598.10
 181   20:00  999.0    66   58.6     1    309.4     1.8   599.90
 181   20:10  999.0    65   58.7     1    313.3     1.7   597.90
 181   20:20  999.0    65   58.7    -0     99.9     0.2   595.60
 181   20:30  999.0    65   58.7     0    166.1     0.2   595.50
 181   20:40  999.0    65   58.8     1    226.3     1.5   593.60
 181   20:50  999.0    64   58.9     1    225.7     1.5   595.70
 181   21:00  999.0    64   58.9     0    209.4     0.7   594.30
 181   21:10  999.0    64   59.0     1    187.8     2.4   595.00
 181   21:20  999.0    64   59.2     2    217.7     3.2   595.20
 181   21:30  999.0    64   58.9     1    118.4     2.3   590.40
 181   21:40  999.0    64   59.1     2    130.2     2.4   591.60
 181   21:50  999.0    64   59.3     2    139.9     2.7   590.70
 181   22:00  999.0    64   59.3     2    125.0     3.3   589.20
 181   22:10  999.0    64   59.4     2    122.0     3.0   588.20
 181   22:20  999.0    64   59.4     2    115.1     3.0   587.90
 181   22:30  999.0    64   59.4     2    118.8     3.0   585.30
 181   22:40  999.0    64   59.6     2    126.8     2.1   584.70
 181   22:50  999.0    64   59.6     2    160.7     2.4   585.20
 181   23:00  999.0    63   59.3     1    164.4     1.7   585.90
 181   23:10  999.0    63   59.3     2    174.9     3.0   584.20
 181   23:20  999.0    63   59.4     2    173.0     2.8   583.20
 181   23:30  999.0    63   59.4     1    172.9     2.0   582.50
 181   23:40  999.0    63   59.4     1    181.1     1.5   580.90
 181   23:50  999.0    63   59.5     2    171.1     1.9   582.50
 182    0:00  999.0    64   59.7     2    148.8     2.3   582.80
 182    0:10  999.0    64   59.8     2    140.8     3.5   585.40
 182    0:20  999.0    64   59.9     3    152.4     3.5   582.90
 182    0:30  999.0    65   60.0     3    156.4     3.4   583.80
 182    0:40  999.0    65   59.9     2    157.0     3.1   582.70
 182    0:50  999.0    65   59.9     2    156.7     2.8   580.00
 182    1:00  999.0    65   59.9     2    153.4     2.4   578.10
 182    1:10  999.0    64   59.8     1    128.9     1.6   582.50
 182    1:20  999.0    64   59.6     1    137.4     1.0   581.60
 182    1:30  999.0    64   59.7     2    188.1     2.5   581.00
 182    1:40  999.0    64   59.5     3    200.1     3.3   579.70
 182    1:50  999.0    64   59.3     3    193.9     3.4   582.60
 182    2:00  999.0    64   59.5     3    221.8     4.1   581.20
 182    2:10  999.0    65   59.3     4    227.3     4.7   579.80
 182    2:20  999.0    65   59.0     4    218.6     4.8   578.50
 182    2:30  999.0    65   59.1     4    218.1     5.3   577.50
 182    2:40  999.0    65   59.0     4    218.4     5.5   578.50
 182    2:50  999.0    65   59.0     4    225.8     4.4   578.10
 182    3:00  999.0    64   58.8     4    227.1     4.6   580.50
 182    3:10  999.0    64   58.8     3    231.2     3.5   578.40
 182    3:20  999.0    64   58.8     2    228.6     3.7   580.40
 182    3:30  999.0    65   58.8     1    243.9     2.2   579.70
 182    3:40  999.0    65   58.7     0    234.5     0.8   577.80
 182    3:50  999.0    65   58.8    -0     52.9     0.2   575.20
 182    4:00  999.0    65   58.7     0    324.5     0.2   576.80
 182    4:10  999.0    64   58.4     0     49.7     0.2   578.50
 182    4:20  999.0    64   58.5     0     62.7     1.2   577.70
 182    4:30  999.0    63   58.3     1     71.7     1.3   574.90
 182    4:40  999.0    63   58.2     1     72.3     1.8   576.50
 182    4:50  999.0    62   58.1     2     73.7     2.4   573.40
 182    5:00  999.0    62   57.9     2     78.9     3.0   576.00
 182    5:10  999.0    62   58.0     3     73.4     3.8   574.30
 182    5:20  999.0    62   58.0     3     76.0     3.5   576.60
 182    5:30  999.0    62   57.9     4     64.5     5.5   576.40
 182    5:40  999.0    63   58.0     5     55.4     6.0   577.60
 182    5:50  999.0    63   57.9     5     51.8     6.9   573.80
 182    6:00  999.0    63   58.2     6     43.8     7.2   575.70
 182    6:10  999.0    63   58.0     5     50.0     6.9   579.00
 182    6:20  999.0    62   57.8     4     56.1     5.4   581.80
 182    6:30  999.0    63   58.1     5     57.0     5.9   578.70
 182    6:40  999.0    64   58.1     5     56.6     5.7   577.00
 182    6:50  999.0    63   58.0     4     57.3     5.2   576.50
 182    7:00  999.0    63   57.8     4     64.9     5.4   577.90
 182    7:10  999.0    63   57.7     3     74.7     5.0   579.10
 182    7:20  999.0    64   57.5     3     87.8     3.7   577.30
 182    7:30  999.0    66   56.8     3     93.3     3.7   578.20
 182    7:40  999.0    67   56.1     4     93.8     5.2   581.00
 182    7:50  999.0    67   55.9     4     92.9     4.9   579.80
 182    8:00  999.0    68   56.1     4     98.4     5.0   583.50
 182    8:10  999.0    70   55.9     3     98.2     4.7   583.20
 182    8:20  999.0    72   55.4     3     95.9     4.0   582.10
 182    8:30  999.0    72   55.4     3     99.7     4.7   587.70
 182    8:40  999.0    72   55.5     3     99.3     5.2   586.80
 182    8:50  999.0    72   55.6     3     97.4     5.3   586.00
 182    9:00  999.0    72   55.9     4    102.7     6.0   592.40
 182    9:10  999.0    73   55.6     4     98.3     5.5   590.50
 182    9:20  999.0    74   55.4     4    103.0     5.6   591.10
 182    9:30  999.0    75   55.3     3    105.1     5.3   591.30
 182    9:40  999.0    75   55.2     4    115.9     5.8   592.00
 182    9:50  999.0    75   55.0     3    131.9     5.3   591.10
 182   10:00  999.0    75   55.2     2    121.9     3.3   593.00
 182   10:10  999.0    76   56.1     1    158.0     4.2   592.80
 182   10:20  999.0    77   55.4     4    172.5     7.1   595.40
 182   10:30  999.0    77   55.1     4    181.9     6.9   596.80
 182   10:40  999.0    77   55.3     4    207.6     5.5   595.50
 182   10:50  999.0    74   55.9     6    230.8     7.8   596.90
 182   11:00  999.0    72   57.5     5    233.0     7.5   597.60
 182   11:10  999.0    73   58.3     4    234.3     7.3   597.30
 182   11:20  999.0    73   58.0     4    227.9     6.8   597.10
 182   11:30  999.0    73   58.2     4    255.2     8.0   598.70
 182   11:40  999.0    72   58.2     4    242.5     8.6   598.40
 182   11:50  999.0    71   57.9     6    238.7     9.9   600.80
 182   12:00  999.0    70   58.2     5    243.9     7.3   600.00
 182   12:10  999.0    70   58.3     6    237.5     8.2   601.80
 182   12:20  999.0    70   58.2     3    261.8     5.8   602.30
 182   12:30  999.0    69   58.0     5    249.6     7.6   602.60
 182   12:40  999.0    68   58.2     4    254.9     6.4   601.70
 182   12:50  999.0    68   58.3     4    248.1     6.6   602.40
 182   13:00  999.0    68   58.2     3    255.8     6.0   603.20
 182   13:10  999.0    69   58.5     4    241.6     6.1   602.90
 182   13:20  999.0    70   57.8     4    236.6     7.8   604.10
 182   13:30  999.0    70   57.8     4    238.2     7.3   602.70
 182   13:40  999.0    69   57.7     4    264.5     7.1   604.20
 182   13:50  999.0    68   58.3     4    276.1     6.1   604.10
 182   14:00  999.0    68   58.5     5    268.3     7.5   605.50
 182   14:10  999.0    68   58.5     4    278.4     7.3   604.10
 182   14:20  999.0    68   58.5     4    288.7     7.3   604.80
 182   14:30  999.0    68   58.5     4    262.8     6.8   606.10
 182   14:40  999.0    68   58.6     5    254.1     9.8   605.80
 182   14:50  999.0    68   58.7     5    261.5     7.6   605.20
 182   15:00  999.0    68   58.5     5    252.2     9.2   604.80
 182   15:10  999.0    68   58.5     6    244.2     8.8   604.40
 182   15:20  999.0    68   58.4     6    240.4     9.4   603.90
 182   15:30  999.0    68   58.4     5    254.9     8.6   604.90
 182   15:40  999.0    68   58.5     6    249.9     8.6   605.60
 182   15:50  999.0    68   58.5     5    262.7     7.7   604.40
 182   16:00  999.0    68   58.5     6    253.1     8.2   604.90
 182   16:10  999.0    68   58.4     6    248.4     8.3   605.10
 182   16:20  999.0    68   58.6     5    261.5     7.7   602.00
 182   16:30  999.0    68   58.4     6    252.6     8.9   603.70
 182   16:40  999.0    68   58.4     5    258.4     8.4   602.40
 182   16:50  999.0    67   58.4     6    248.0     8.7   603.60
 182   17:00  999.0    67   58.5     6    244.0    10.2   602.80
 182   17:10  999.0    67   58.7     6    249.6     9.3   601.50
 182   17:20  999.0    67   58.5     5    255.9     8.2   603.50
 182   17:30  999.0    66   58.3     5    257.3     8.4   602.00
 182   17:40  999.0    66   58.3     4    258.4     6.3   601.20
 182   17:50  999.0    66   58.2     4    294.7     5.6   601.10
 182   18:00  999.0    65   58.1     4    301.4     6.6   598.30
 182   18:10  999.0    65   58.3     3    284.8     5.2   597.50
 182   18:20  999.0    65   58.2     4    294.3     5.6   598.00

Return to Mt. Lincoln graphs page.


Western Regional Climate Center,wrcc@dri.edu